Time,TemperatureF,DewpointF,PressureIn,WindDirection,WindDirectionDegrees,WindSpeedMPH,WindSpeedGustMPH,Humidity,HourlyPrecipIn,Conditions,Clouds,dailyrainin,SolarRadiationWatts/m^2,SoftwareType,DateUTC
2013-10-01 00:03:00,51.8,47.4,29.87,SE,134,0.0,0.0,85,0.00,,,0.00,0,Wunderground v.1.15,2013-10-01 05:03:00,
2013-10-01 00:08:00,52.3,47.9,29.87,SE,134,0.0,0.0,85,0.00,,,0.00,0,Wunderground v.1.15,2013-10-01 05:08:00,
2013-10-01 00:14:00,52.7,48.0,29.87,SE,134,0.0,0.0,84,0.00,,,0.00,0,Wunderground v.1.15,2013-10-01 05:14:00,
2013-10-01 00:19:00,52.5,48.1,29.87,SE,134,0.0,0.0,85,0.00,,,0.00,0,Wunderground v.1.15,2013-10-01 05:19:00,
2013-10-01 00:25:00,51.8,47.7,29.87,SE,134,0.0,0.0,86,0.00,,,0.00,0,Wunderground v.1.15,2013-10-01 05:25:00,
2013-10-01 00:30:00,50.6,46.9,29.87,SE,134,0.0,0.0,87,0.00,,,0.00,0,Wunderground v.1.15,2013-10-01 05:30:00,
2013-10-01 00:35:00,51.2,48.1,29.87,SE,134,0.0,0.0,89,0.00,,,0.00,0,Wunderground v.1.15,2013-10-01 05:35:00,
2013-10-01 00:41:00,51.1,48.0,29.87,SE,134,0.0,0.0,89,0.00,,,0.00,0,Wunderground v.1.15,2013-10-01 05:41:00,
2013-10-01 00:47:00,52.1,49.3,29.87,SE,134,0.0,0.0,90,0.00,,,0.00,0,Wunderground v.1.15,2013-10-01 05:47:00,
2013-10-01 00:52:00,51.8,48.7,29.87,SE,134,0.0,0.0,89,0.00,,,0.00,0,Wunderground v.1.15,2013-10-01 05:52:00,
2013-10-01 00:58:00,52.3,48.9,29.87,SE,134,0.0,0.0,88,0.00,,,0.00,0,Wunderground v.1.15,2013-10-01 05:58:00,
2013-10-01 01:03:00,53.5,50.0,29.88,SE,134,0.0,0.0,88,0.00,,,0.00,0,Wunderground v.1.15,2013-10-01 06:03:00,
2013-10-01 01:09:00,54.4,50.6,29.88,SE,134,0.0,0.0,87,0.00,,,0.00,0,Wunderground v.1.15,2013-10-01 06:09:00,
2013-10-01 01:14:00,54.5,50.4,29.88,SE,134,0.0,0.0,86,0.00,,,0.00,0,Wunderground v.1.15,2013-10-01 06:14:00,
2013-10-01 01:20:00,54.2,50.1,29.88,SE,134,0.0,0.0,86,0.00,,,0.00,0,Wunderground v.1.15,2013-10-01 06:20:00,
2013-10-01 01:26:00,54.6,49.9,29.88,SE,134,0.0,0.0,84,0.00,,,0.00,0,Wunderground v.1.15,2013-10-01 06:26:00,
2013-10-01 01:31:00,54.8,50.7,29.88,SE,134,0.0,0.0,86,0.00,,,0.00,0,Wunderground v.1.15,2013-10-01 06:31:00,
2013-10-01 01:37:00,55.6,51.2,29.88,SE,134,0.0,0.0,85,0.00,,,0.00,0,Wunderground v.1.15,2013-10-01 06:37:00,
2013-10-01 01:43:00,55.7,50.9,29.88,SE,134,0.0,0.0,84,0.00,,,0.00,0,Wunderground v.1.15,2013-10-01 06:43:00,
2013-10-01 01:49:00,55.5,50.7,29.88,SE,134,0.0,0.0,84,0.00,,,0.00,0,Wunderground v.1.15,2013-10-01 06:49:00,
2013-10-01 01:55:00,55.4,51.0,29.88,SE,134,0.0,0.0,85,0.00,,,0.00,0,Wunderground v.1.15,2013-10-01 06:55:00,
2013-10-01 02:01:00,55.6,51.2,29.88,SE,134,0.0,0.0,85,0.00,,,0.00,0,Wunderground v.1.15,2013-10-01 07:01:00,
2013-10-01 02:06:00,55.4,51.3,29.88,SE,134,0.0,0.0,86,0.00,,,0.00,0,Wunderground v.1.15,2013-10-01 07:06:00,
2013-10-01 02:11:00,56.1,52.0,29.88,SE,134,0.0,0.0,86,0.00,,,0.00,0,Wunderground v.1.15,2013-10-01 07:11:00,
2013-10-01 02:17:00,56.3,51.8,29.88,South,181,0.0,0.0,85,0.00,,,0.00,0,Wunderground v.1.15,2013-10-01 07:17:00,
2013-10-01 02:22:00,56.2,52.1,29.88,SW,221,0.0,0.0,86,0.00,,,0.00,0,Wunderground v.1.15,2013-10-01 07:22:00,
2013-10-01 02:27:00,56.8,52.7,29.88,SW,228,0.0,0.0,86,0.00,,,0.00,0,Wunderground v.1.15,2013-10-01 07:27:00,
2013-10-01 02:33:00,56.7,52.2,29.88,SW,229,0.0,0.0,85,0.00,,,0.00,0,Wunderground v.1.15,2013-10-01 07:33:00,
2013-10-01 02:39:00,55.7,51.3,29.88,SW,217,0.0,0.0,85,0.00,,,0.00,0,Wunderground v.1.15,2013-10-01 07:39:00,
2013-10-01 02:44:00,55.6,51.8,29.88,SW,217,0.0,0.0,87,0.00,,,0.00,0,Wunderground v.1.15,2013-10-01 07:44:00,
2013-10-01 02:49:00,55.6,51.8,29.88,SW,217,0.0,0.0,87,0.00,,,0.00,0,Wunderground v.1.15,2013-10-01 07:49:00,
2013-10-01 02:55:00,56.1,52.6,29.88,SW,217,0.0,0.0,88,0.00,,,0.00,0,Wunderground v.1.15,2013-10-01 07:55:00,
2013-10-01 03:00:00,56.1,52.6,29.87,SW,217,0.0,0.0,88,0.00,,,0.00,0,Wunderground v.1.15,2013-10-01 08:00:00,
2013-10-01 03:06:00,56.6,53.4,29.87,SW,217,0.0,0.0,89,0.00,,,0.00,0,Wunderground v.1.15,2013-10-01 08:06:00,
2013-10-01 03:11:00,56.9,53.7,29.87,SW,223,0.0,0.0,89,0.00,,,0.00,0,Wunderground v.1.15,2013-10-01 08:11:00,
2013-10-01 03:16:00,58.4,55.2,29.87,SW,233,0.0,0.0,89,0.00,,,0.00,0,Wunderground v.1.15,2013-10-01 08:16:00,
2013-10-01 03:21:00,58.8,54.9,29.87,SW,218,0.0,0.0,87,0.00,,,0.00,0,Wunderground v.1.15,2013-10-01 08:21:00,
2013-10-01 03:27:00,59.7,55.8,29.87,SW,225,0.0,0.0,87,0.00,,,0.00,0,Wunderground v.1.15,2013-10-01 08:27:00,
2013-10-01 03:33:00,60.2,56.0,29.87,SSW,209,0.0,0.0,86,0.00,,,0.00,0,Wunderground v.1.15,2013-10-01 08:33:00,
2013-10-01 03:39:00,60.3,55.8,29.87,SW,216,0.0,0.0,85,0.00,,,0.00,0,Wunderground v.1.15,2013-10-01 08:39:00,
2013-10-01 03:45:00,60.4,56.2,29.87,SSW,194,0.0,0.0,86,0.00,,,0.00,0,Wunderground v.1.15,2013-10-01 08:45:00,
2013-10-01 03:50:00,60.4,56.2,29.87,SSW,211,0.0,0.0,86,0.00,,,0.00,0,Wunderground v.1.15,2013-10-01 08:50:00,
2013-10-01 03:56:00,60.3,56.1,29.87,SW,219,0.0,0.0,86,0.00,,,0.00,0,Wunderground v.1.15,2013-10-01 08:56:00,
2013-10-01 04:01:00,60.2,56.0,29.87,SW,220,0.0,0.0,86,0.00,,,0.00,0,Wunderground v.1.15,2013-10-01 09:01:00,
2013-10-01 04:07:00,60.2,56.0,29.87,SW,217,0.0,0.0,86,0.00,,,0.00,0,Wunderground v.1.15,2013-10-01 09:07:00,
2013-10-01 04:12:00,60.1,55.9,29.87,SW,227,0.0,0.0,86,0.00,,,0.00,0,Wunderground v.1.15,2013-10-01 09:12:00,
2013-10-01 04:18:00,59.9,55.7,29.88,SSW,200,0.0,0.0,86,0.00,,,0.00,0,Wunderground v.1.15,2013-10-01 09:18:00,
2013-10-01 04:24:00,59.8,55.6,29.88,SSW,207,0.0,0.0,86,0.00,,,0.00,0,Wunderground v.1.15,2013-10-01 09:24:00,
2013-10-01 04:29:00,59.7,55.8,29.87,South,189,0.0,0.0,87,0.00,,,0.00,0,Wunderground v.1.15,2013-10-01 09:29:00,
2013-10-01 04:34:00,59.6,55.7,29.87,SW,215,0.0,0.0,87,0.00,,,0.00,0,Wunderground v.1.15,2013-10-01 09:34:00,
2013-10-01 04:40:00,59.5,55.6,29.87,SSW,213,0.0,0.0,87,0.00,,,0.00,0,Wunderground v.1.15,2013-10-01 09:40:00,
2013-10-01 04:45:00,59.4,55.8,29.87,WSW,240,0.0,0.0,88,0.00,,,0.00,0,Wunderground v.1.15,2013-10-01 09:45:00,
2013-10-01 04:51:00,59.3,55.7,29.87,SSW,213,0.0,0.0,88,0.00,,,0.00,0,Wunderground v.1.15,2013-10-01 09:51:00,
2013-10-01 04:57:00,59.2,55.6,29.87,SW,227,0.0,0.0,88,0.00,,,0.00,0,Wunderground v.1.15,2013-10-01 09:57:00,
2013-10-01 05:02:00,59.2,55.6,29.87,SW,219,0.0,0.0,88,0.00,,,0.00,0,Wunderground v.1.15,2013-10-01 10:02:00,
2013-10-01 05:08:00,59.1,55.5,29.87,SW,217,0.0,0.0,88,0.00,,,0.00,0,Wunderground v.1.15,2013-10-01 10:08:00,
2013-10-01 05:13:00,59.1,55.9,29.87,SSW,213,0.0,0.0,89,0.00,,,0.00,0,Wunderground v.1.15,2013-10-01 10:13:00,
2013-10-01 05:19:00,58.9,55.7,29.88,SSW,213,0.0,0.0,89,0.00,,,0.00,0,Wunderground v.1.15,2013-10-01 10:19:00,
2013-10-01 05:25:00,58.8,55.6,29.88,SW,217,0.0,0.0,89,0.00,,,0.00,0,Wunderground v.1.15,2013-10-01 10:25:00,
2013-10-01 05:31:00,58.8,55.6,29.87,SW,214,0.0,0.0,89,0.00,,,0.00,0,Wunderground v.1.15,2013-10-01 10:31:00,
2013-10-01 05:36:00,58.7,55.5,29.87,SW,226,0.0,0.0,89,0.00,,,0.00,0,Wunderground v.1.15,2013-10-01 10:36:00,
2013-10-01 05:42:00,58.7,55.5,29.87,SW,221,0.0,0.0,89,0.00,,,0.00,0,Wunderground v.1.15,2013-10-01 10:42:00,
2013-10-01 05:48:00,58.7,55.5,29.88,SW,218,0.0,0.0,89,0.00,,,0.00,0,Wunderground v.1.15,2013-10-01 10:48:00,
2013-10-01 05:53:00,58.7,55.5,29.88,SSW,203,0.0,0.0,89,0.00,,,0.00,0,Wunderground v.1.15,2013-10-01 10:53:00,
2013-10-01 05:59:00,58.8,55.9,29.88,SSW,197,0.0,0.0,90,0.00,,,0.00,0,Wunderground v.1.15,2013-10-01 10:59:00,
2013-10-01 06:04:00,58.8,55.9,29.88,SSW,203,0.0,0.0,90,0.00,,,0.00,0,Wunderground v.1.15,2013-10-01 11:04:00,
2013-10-01 06:09:00,59.0,56.1,29.88,SW,217,0.0,0.0,90,0.00,,,0.00,0,Wunderground v.1.15,2013-10-01 11:09:00,
2013-10-01 06:15:00,59.2,56.3,29.88,SW,234,0.0,0.0,90,0.00,,,0.00,0,Wunderground v.1.15,2013-10-01 11:15:00,
2013-10-01 06:20:00,59.3,56.4,29.88,SSW,213,0.0,0.0,90,0.00,,,0.00,0,Wunderground v.1.15,2013-10-01 11:20:00,
2013-10-01 06:25:00,59.5,56.6,29.88,SW,217,0.0,0.0,90,0.00,,,0.00,0,Wunderground v.1.15,2013-10-01 11:25:00,
2013-10-01 06:31:00,59.6,56.7,29.88,SW,227,0.0,0.0,90,0.00,,,0.00,0,Wunderground v.1.15,2013-10-01 11:31:00,
2013-10-01 06:36:00,59.7,56.5,29.88,SSW,204,0.0,0.0,89,0.00,,,0.00,0,Wunderground v.1.15,2013-10-01 11:36:00,
2013-10-01 06:41:00,59.7,56.5,29.88,SSW,210,0.0,0.0,89,0.00,,,0.00,0,Wunderground v.1.15,2013-10-01 11:41:00,
2013-10-01 06:46:00,59.7,56.8,29.88,SSW,206,0.0,0.0,90,0.00,,,0.00,0,Wunderground v.1.15,2013-10-01 11:46:00,
2013-10-01 06:52:00,59.8,56.9,29.88,SW,223,0.0,0.0,90,0.00,,,0.00,0,Wunderground v.1.15,2013-10-01 11:52:00,
2013-10-01 06:57:00,59.8,56.9,29.88,SW,228,0.0,0.0,90,0.00,,,0.00,5,Wunderground v.1.15,2013-10-01 11:57:00,
2013-10-01 07:03:00,59.8,56.9,29.88,SSW,203,0.0,0.0,90,0.00,,,0.00,9,Wunderground v.1.15,2013-10-01 12:03:00,
2013-10-01 07:08:00,59.9,57.0,29.88,SW,223,0.0,0.0,90,0.00,,,0.00,12,Wunderground v.1.15,2013-10-01 12:08:00,
2013-10-01 07:15:00,59.9,57.0,29.89,SW,224,0.0,0.0,90,0.00,,,0.00,16,Wunderground v.1.15,2013-10-01 12:15:00,
2013-10-01 07:20:00,59.9,57.0,29.89,SSW,213,1.0,6.0,90,0.00,,,0.00,23,Wunderground v.1.15,2013-10-01 12:20:00,
2013-10-01 07:25:00,60.0,57.1,29.89,SW,225,3.0,6.0,90,0.00,,,0.00,23,Wunderground v.1.15,2013-10-01 12:25:00,
2013-10-01 07:31:00,60.0,57.1,29.89,SSW,209,5.0,8.0,90,0.00,,,0.00,30,Wunderground v.1.15,2013-10-01 12:31:00,
2013-10-01 07:36:00,60.0,57.1,29.89,SW,219,4.0,8.0,90,0.00,,,0.00,33,Wunderground v.1.15,2013-10-01 12:36:00,
2013-10-01 07:41:00,60.0,57.1,29.89,SSE,167,3.0,4.0,90,0.00,,,0.00,39,Wunderground v.1.15,2013-10-01 12:41:00,
2013-10-01 07:46:00,60.1,57.5,29.89,SSW,202,4.0,7.0,91,0.00,,,0.00,63,Wunderground v.1.15,2013-10-01 12:46:00,
2013-10-01 07:52:00,60.3,57.4,29.89,SW,215,5.0,6.0,90,0.00,,,0.00,84,Wunderground v.1.15,2013-10-01 12:52:00,
2013-10-01 07:57:00,60.4,57.5,29.89,SW,217,6.0,6.0,90,0.00,,,0.00,90,Wunderground v.1.15,2013-10-01 12:57:00,
2013-10-01 08:02:00,60.5,57.6,29.89,SW,231,7.0,13.0,90,0.00,,,0.00,97,Wunderground v.1.15,2013-10-01 13:02:00,
2013-10-01 08:08:00,60.5,57.6,29.89,SW,226,7.0,13.0,90,0.00,,,0.00,127,Wunderground v.1.15,2013-10-01 13:08:00,
2013-10-01 08:13:00,60.7,57.7,29.89,WSW,252,6.0,10.0,90,0.00,,,0.00,128,Wunderground v.1.15,2013-10-01 13:13:00,
2013-10-01 08:19:00,60.8,58.2,29.89,SSW,202,6.0,11.0,91,0.00,,,0.00,123,Wunderground v.1.15,2013-10-01 13:19:00,
2013-10-01 08:25:00,60.9,58.3,29.89,SW,229,6.0,7.0,91,0.00,,,0.00,111,Wunderground v.1.15,2013-10-01 13:25:00,
2013-10-01 08:31:00,61.1,58.5,29.89,South,186,4.0,4.0,91,0.00,,,0.00,158,Wunderground v.1.15,2013-10-01 13:31:00,
2013-10-01 08:36:00,61.2,58.2,29.89,SW,236,4.0,6.0,90,0.00,,,0.00,121,Wunderground v.1.15,2013-10-01 13:36:00,
2013-10-01 08:41:00,61.3,58.3,29.89,South,183,5.0,5.0,90,0.00,,,0.00,171,Wunderground v.1.15,2013-10-01 13:41:00,
2013-10-01 08:47:00,61.5,58.5,29.89,SW,220,5.0,9.0,90,0.00,,,0.00,90,Wunderground v.1.15,2013-10-01 13:47:00,
2013-10-01 08:52:00,61.7,58.7,29.89,SSW,196,7.0,7.0,90,0.00,,,0.00,218,Wunderground v.1.15,2013-10-01 13:52:00,
2013-10-01 08:57:00,61.9,58.9,29.89,SSE,159,7.0,9.0,90,0.00,,,0.00,127,Wunderground v.1.15,2013-10-01 13:57:00,
2013-10-01 09:02:00,62.1,59.1,29.90,WSW,242,6.0,7.0,90,0.00,,,0.00,91,Wunderground v.1.15,2013-10-01 14:02:00,
2013-10-01 09:08:00,62.2,59.2,29.90,SSW,213,6.0,9.0,90,0.00,,,0.00,142,Wunderground v.1.15,2013-10-01 14:08:00,
2013-10-01 09:13:00,62.4,59.4,29.90,South,179,6.0,8.0,90,0.00,,,0.00,155,Wunderground v.1.15,2013-10-01 14:13:00,
2013-10-01 09:18:00,62.6,59.6,29.89,WSW,251,5.0,9.0,90,0.00,,,0.00,188,Wunderground v.1.15,2013-10-01 14:18:00,
2013-10-01 09:24:00,62.8,59.5,29.89,SSW,209,5.0,7.0,89,0.00,,,0.00,274,Wunderground v.1.15,2013-10-01 14:24:00,
2013-10-01 09:30:00,63.2,59.9,29.89,South,191,5.0,5.0,89,0.00,,,0.00,234,Wunderground v.1.15,2013-10-01 14:30:00,
2013-10-01 09:36:00,63.5,60.2,29.89,SW,218,4.0,6.0,89,0.00,,,0.00,253,Wunderground v.1.15,2013-10-01 14:36:00,
2013-10-01 09:41:00,63.8,60.5,29.89,SSW,201,4.0,6.0,89,0.00,,,0.00,229,Wunderground v.1.15,2013-10-01 14:41:00,
2013-10-01 09:47:00,64.0,60.4,29.89,SW,227,6.0,12.0,88,0.00,,,0.00,230,Wunderground v.1.15,2013-10-01 14:47:00,
2013-10-01 09:53:00,64.3,60.7,29.89,SSW,200,6.0,9.0,88,0.00,,,0.00,287,Wunderground v.1.15,2013-10-01 14:53:00,
2013-10-01 09:59:00,64.9,60.9,29.89,South,184,7.0,15.0,87,0.00,,,0.00,606,Wunderground v.1.15,2013-10-01 14:59:00,
2013-10-01 10:04:00,65.4,60.8,29.89,SW,218,8.0,17.0,85,0.00,,,0.00,548,Wunderground v.1.15,2013-10-01 15:04:00,
2013-10-01 10:09:00,65.8,61.2,29.89,SW,217,8.0,17.0,85,0.00,,,0.00,538,Wunderground v.1.15,2013-10-01 15:09:00,
2013-10-01 10:15:00,66.0,61.0,29.88,SE,144,9.0,11.0,84,0.00,,,0.00,534,Wunderground v.1.15,2013-10-01 15:15:00,
2013-10-01 10:20:00,66.2,60.9,29.88,SSW,211,7.0,7.0,83,0.00,,,0.00,550,Wunderground v.1.15,2013-10-01 15:20:00,
2013-10-01 10:26:00,66.4,60.7,29.88,SW,215,8.0,13.0,82,0.00,,,0.00,568,Wunderground v.1.15,2013-10-01 15:26:00,
2013-10-01 10:32:00,66.9,61.2,29.88,South,169,8.0,9.0,82,0.00,,,0.00,643,Wunderground v.1.15,2013-10-01 15:32:00,
2013-10-01 10:40:00,67.1,60.7,29.88,SSW,202,7.0,10.0,80,0.00,,,0.00,589,Wunderground v.1.15,2013-10-01 15:40:00,
2013-10-01 10:46:00,67.3,60.9,29.88,SW,226,7.0,11.0,80,0.00,,,0.00,598,Wunderground v.1.15,2013-10-01 15:46:00,
2013-10-01 10:51:00,67.5,60.8,29.88,SW,216,8.0,15.0,79,0.00,,,0.00,594,Wunderground v.1.15,2013-10-01 15:51:00,
2013-10-01 10:56:00,67.5,60.4,29.88,SW,215,10.0,15.0,78,0.00,,,0.00,608,Wunderground v.1.15,2013-10-01 15:56:00,
2013-10-01 11:03:00,67.5,60.8,29.87,WSW,239,10.0,17.0,79,0.00,,,0.00,596,Wunderground v.1.15,2013-10-01 16:03:00,
2013-10-01 11:09:00,67.5,60.8,29.87,SSE,162,9.0,17.0,79,0.00,,,0.00,628,Wunderground v.1.15,2013-10-01 16:09:00,
2013-10-01 11:15:00,68.0,60.9,29.87,SW,217,8.0,12.0,78,0.00,,,0.00,633,Wunderground v.1.15,2013-10-01 16:15:00,
2013-10-01 11:20:00,68.1,60.6,29.87,SSW,208,7.0,9.0,77,0.00,,,0.00,638,Wunderground v.1.15,2013-10-01 16:20:00,
2013-10-01 11:26:00,68.2,60.7,29.87,SSW,200,6.0,9.0,77,0.00,,,0.00,645,Wunderground v.1.15,2013-10-01 16:26:00,
2013-10-01 11:32:00,68.9,61.0,29.87,SSW,202,6.0,7.0,76,0.00,,,0.00,647,Wunderground v.1.15,2013-10-01 16:32:00,
2013-10-01 11:37:00,69.0,60.7,29.87,South,176,6.0,10.0,75,0.00,,,0.00,652,Wunderground v.1.15,2013-10-01 16:37:00,
2013-10-01 11:43:00,69.2,61.3,29.87,SSW,207,7.0,12.0,76,0.00,,,0.00,649,Wunderground v.1.15,2013-10-01 16:43:00,
2013-10-01 11:48:00,69.7,61.8,29.87,SW,229,6.0,12.0,76,0.00,,,0.00,661,Wunderground v.1.15,2013-10-01 16:48:00,
2013-10-01 11:53:00,69.8,61.1,29.87,SSW,212,9.0,17.0,74,0.00,,,0.00,673,Wunderground v.1.15,2013-10-01 16:53:00,
2013-10-01 11:58:00,70.1,60.7,29.87,WSW,238,12.0,18.0,72,0.00,,,0.00,670,Wunderground v.1.15,2013-10-01 16:58:00,
2013-10-01 12:04:00,70.5,61.4,29.87,SW,235,11.0,14.0,73,0.00,,,0.00,668,Wunderground v.1.15,2013-10-01 17:04:00,
2013-10-01 12:10:00,71.0,61.1,29.87,SW,224,9.0,18.0,71,0.00,,,0.00,671,Wunderground v.1.15,2013-10-01 17:10:00,
2013-10-01 12:15:00,71.1,61.2,29.86,SSE,163,8.0,18.0,71,0.00,,,0.00,680,Wunderground v.1.15,2013-10-01 17:15:00,
2013-10-01 12:20:00,71.4,61.5,29.86,South,180,8.0,8.0,71,0.00,,,0.00,680,Wunderground v.1.15,2013-10-01 17:20:00,
2013-10-01 12:26:00,71.8,61.5,29.86,South,182,7.0,13.0,70,0.00,,,0.00,682,Wunderground v.1.15,2013-10-01 17:26:00,
2013-10-01 12:31:00,72.0,60.9,29.85,SW,230,8.0,11.0,68,0.00,,,0.00,686,Wunderground v.1.15,2013-10-01 17:31:00,
2013-10-01 12:37:00,72.2,61.5,29.85,SW,223,10.0,15.0,69,0.00,,,0.00,686,Wunderground v.1.15,2013-10-01 17:37:00,
2013-10-01 12:43:00,72.5,60.9,29.85,SSW,211,10.0,14.0,67,0.00,,,0.00,659,Wunderground v.1.15,2013-10-01 17:43:00,
2013-10-01 12:49:00,73.0,61.0,29.85,SW,225,10.0,19.0,66,0.00,,,0.00,689,Wunderground v.1.15,2013-10-01 17:49:00,
2013-10-01 12:54:00,73.1,61.1,29.85,SW,227,11.0,15.0,66,0.00,,,0.00,687,Wunderground v.1.15,2013-10-01 17:54:00,
2013-10-01 13:01:00,73.3,61.3,29.85,South,182,11.0,11.0,66,0.00,,,0.00,686,Wunderground v.1.15,2013-10-01 18:01:00,
2013-10-01 13:06:00,73.6,61.5,29.85,SW,233,11.0,12.0,66,0.00,,,0.00,682,Wunderground v.1.15,2013-10-01 18:06:00,
2013-10-01 13:11:00,73.6,61.1,29.85,SSW,200,11.0,19.0,65,0.00,,,0.00,661,Wunderground v.1.15,2013-10-01 18:11:00,
2013-10-01 13:17:00,73.9,61.4,29.85,South,181,12.0,19.0,65,0.00,,,0.00,675,Wunderground v.1.15,2013-10-01 18:17:00,
2013-10-01 13:23:00,73.9,61.0,29.85,SW,236,14.0,17.0,64,0.00,,,0.00,682,Wunderground v.1.15,2013-10-01 18:23:00,
2013-10-01 13:28:00,74.0,61.0,29.85,SSW,211,15.0,22.0,64,0.00,,,0.00,671,Wunderground v.1.15,2013-10-01 18:28:00,
2013-10-01 13:34:00,74.1,60.7,29.84,SW,232,16.0,20.0,63,0.00,,,0.00,671,Wunderground v.1.15,2013-10-01 18:34:00,
2013-10-01 13:39:00,74.1,61.6,29.84,SW,219,16.0,20.0,65,0.00,,,0.00,670,Wunderground v.1.15,2013-10-01 18:39:00,
2013-10-01 13:44:00,74.5,61.5,29.84,SW,224,14.0,18.0,64,0.00,,,0.00,657,Wunderground v.1.15,2013-10-01 18:44:00,
2013-10-01 13:50:00,74.8,60.9,29.84,SW,233,13.0,15.0,62,0.00,,,0.00,649,Wunderground v.1.15,2013-10-01 18:50:00,
2013-10-01 13:55:00,74.7,61.3,29.84,SW,233,15.0,19.0,63,0.00,,,0.00,642,Wunderground v.1.15,2013-10-01 18:55:00,
2013-10-01 14:01:00,74.9,61.0,29.84,SW,221,16.0,16.0,62,0.00,,,0.00,640,Wunderground v.1.15,2013-10-01 19:01:00,
2013-10-01 14:06:00,75.4,61.5,29.84,SSW,192,12.0,16.0,62,0.00,,,0.00,626,Wunderground v.1.15,2013-10-01 19:06:00,
2013-10-01 14:11:00,75.5,61.6,29.84,SW,214,10.0,18.0,62,0.00,,,0.00,621,Wunderground v.1.15,2013-10-01 19:11:00,
2013-10-01 14:16:00,75.6,61.2,29.85,WSW,238,13.0,21.0,61,0.00,,,0.00,612,Wunderground v.1.15,2013-10-01 19:16:00,
2013-10-01 14:22:00,75.9,61.5,29.85,SW,219,15.0,19.0,61,0.00,,,0.00,603,Wunderground v.1.15,2013-10-01 19:22:00,
2013-10-01 14:27:00,76.2,60.8,29.85,SSW,211,13.0,19.0,59,0.00,,,0.00,589,Wunderground v.1.15,2013-10-01 19:27:00,
2013-10-01 14:33:00,76.4,61.5,29.85,SW,229,10.0,16.0,60,0.00,,,0.00,592,Wunderground v.1.15,2013-10-01 19:33:00,
2013-10-01 14:39:00,76.7,61.3,29.85,SW,221,11.0,21.0,59,0.00,,,0.00,577,Wunderground v.1.15,2013-10-01 19:39:00,
2013-10-01 14:45:00,76.9,61.0,29.85,SW,225,13.0,21.0,58,0.00,,,0.00,566,Wunderground v.1.15,2013-10-01 19:45:00,
2013-10-01 14:51:00,77.1,61.2,29.85,SW,222,15.0,20.0,58,0.00,,,0.00,557,Wunderground v.1.15,2013-10-01 19:51:00,
2013-10-01 14:56:00,77.1,60.7,29.85,SW,215,16.0,21.0,57,0.00,,,0.00,540,Wunderground v.1.15,2013-10-01 19:56:00,
2013-10-01 15:02:00,77.3,60.9,29.84,SW,223,17.0,20.0,57,0.00,,,0.00,531,Wunderground v.1.15,2013-10-01 20:02:00,
2013-10-01 15:08:00,77.4,60.5,29.84,SW,217,16.0,20.0,56,0.00,,,0.00,494,Wunderground v.1.15,2013-10-01 20:08:00,
2013-10-01 15:14:00,77.5,61.1,29.84,SW,217,14.0,18.0,57,0.00,,,0.00,438,Wunderground v.1.15,2013-10-01 20:14:00,
2013-10-01 15:19:00,77.7,61.3,29.84,SSW,205,13.0,18.0,57,0.00,,,0.00,394,Wunderground v.1.15,2013-10-01 20:19:00,
2013-10-01 15:25:00,77.7,60.8,29.84,SSW,202,13.0,17.0,56,0.00,,,0.00,364,Wunderground v.1.15,2013-10-01 20:25:00,
2013-10-01 15:30:00,78.0,60.5,29.84,SW,228,13.0,13.0,55,0.00,,,0.00,364,Wunderground v.1.15,2013-10-01 20:30:00,
2013-10-01 15:35:00,78.3,60.3,29.84,WSW,239,14.0,17.0,54,0.00,,,0.00,373,Wunderground v.1.15,2013-10-01 20:35:00,
2013-10-01 15:41:00,78.2,60.2,29.84,SW,223,14.0,15.0,54,0.00,,,0.00,390,Wunderground v.1.15,2013-10-01 20:41:00,
2013-10-01 15:47:00,78.5,59.4,29.84,SW,215,14.0,18.0,52,0.00,,,0.00,403,Wunderground v.1.15,2013-10-01 20:47:00,
2013-10-01 15:52:00,78.4,60.4,29.84,SW,220,14.0,15.0,54,0.00,,,0.00,404,Wunderground v.1.15,2013-10-01 20:52:00,
2013-10-01 15:58:00,78.5,60.5,29.84,SSW,207,13.0,16.0,54,0.00,,,0.00,401,Wunderground v.1.15,2013-10-01 20:58:00,
2013-10-01 16:03:00,78.6,60.0,29.84,SW,236,13.0,19.0,53,0.00,,,0.00,387,Wunderground v.1.15,2013-10-01 21:03:00,
2013-10-01 16:10:00,78.8,59.7,29.84,WSW,250,14.0,19.0,52,0.00,,,0.00,374,Wunderground v.1.15,2013-10-01 21:10:00,
2013-10-01 16:15:00,78.7,60.1,29.84,SW,228,15.0,16.0,53,0.00,,,0.00,357,Wunderground v.1.15,2013-10-01 21:15:00,
2013-10-01 16:20:00,78.6,60.6,29.84,WSW,241,14.0,14.0,54,0.00,,,0.00,346,Wunderground v.1.15,2013-10-01 21:20:00,
2013-10-01 16:26:00,78.6,60.0,29.84,WSW,239,14.0,15.0,53,0.00,,,0.00,330,Wunderground v.1.15,2013-10-01 21:26:00,
2013-10-01 16:31:00,78.8,59.7,29.85,WSW,252,12.0,14.0,52,0.00,,,0.00,316,Wunderground v.1.15,2013-10-01 21:31:00,
2013-10-01 16:36:00,78.7,59.6,29.85,SW,225,12.0,15.0,52,0.00,,,0.00,302,Wunderground v.1.15,2013-10-01 21:36:00,
2013-10-01 16:41:00,78.8,59.1,29.85,SW,231,13.0,20.0,51,0.00,,,0.00,290,Wunderground v.1.15,2013-10-01 21:41:00,
2013-10-01 16:47:00,78.8,59.1,29.85,SW,225,16.0,20.0,51,0.00,,,0.00,272,Wunderground v.1.15,2013-10-01 21:47:00,
2013-10-01 16:53:00,78.9,59.2,29.85,WSW,246,16.0,22.0,51,0.00,,,0.00,253,Wunderground v.1.15,2013-10-01 21:53:00,
2013-10-01 16:58:00,78.6,60.0,29.85,WSW,248,16.0,22.0,53,0.00,,,0.00,232,Wunderground v.1.15,2013-10-01 21:58:00,
2013-10-01 17:03:00,78.5,59.9,29.85,WSW,244,14.0,16.0,53,0.00,,,0.00,214,Wunderground v.1.15,2013-10-01 22:03:00,
2013-10-01 17:09:00,78.5,59.9,29.85,SW,236,13.0,16.0,53,0.00,,,0.00,192,Wunderground v.1.15,2013-10-01 22:09:00,
2013-10-01 17:15:00,78.5,59.4,29.85,SW,223,13.0,18.0,52,0.00,,,0.00,172,Wunderground v.1.15,2013-10-01 22:15:00,
2013-10-01 17:21:00,78.4,59.9,29.85,WSW,239,14.0,14.0,53,0.00,,,0.00,149,Wunderground v.1.15,2013-10-01 22:21:00,
2013-10-01 17:26:00,78.3,59.8,29.85,SW,223,12.0,14.0,53,0.00,,,0.00,130,Wunderground v.1.15,2013-10-01 22:26:00,
2013-10-01 17:31:00,78.1,60.1,29.85,WSW,238,10.0,10.0,54,0.00,,,0.00,114,Wunderground v.1.15,2013-10-01 22:31:00,
2013-10-01 17:37:00,77.8,60.3,29.85,SW,224,9.0,11.0,55,0.00,,,0.00,93,Wunderground v.1.15,2013-10-01 22:37:00,
2013-10-01 17:42:00,77.7,60.2,29.85,SW,229,9.0,9.0,55,0.00,,,0.00,79,Wunderground v.1.15,2013-10-01 22:42:00,
2013-10-01 17:48:00,77.7,59.7,29.86,SW,234,9.0,13.0,54,0.00,,,0.00,63,Wunderground v.1.15,2013-10-01 22:48:00,
2013-10-01 17:54:00,77.4,60.5,29.86,WSW,245,10.0,10.0,56,0.00,,,0.00,47,Wunderground v.1.15,2013-10-01 22:54:00,
2013-10-01 17:59:00,77.3,59.9,29.87,WSW,244,10.0,13.0,55,0.00,,,0.00,37,Wunderground v.1.15,2013-10-01 22:59:00,
2013-10-01 18:05:00,77.1,60.2,29.87,SW,233,9.0,11.0,56,0.00,,,0.00,28,Wunderground v.1.15,2013-10-01 23:05:00,
2013-10-01 18:11:00,76.8,60.4,29.87,SW,232,7.0,9.0,57,0.00,,,0.00,18,Wunderground v.1.15,2013-10-01 23:11:00,
2013-10-01 18:17:00,76.3,60.9,29.87,SW,234,6.0,9.0,59,0.00,,,0.00,14,Wunderground v.1.15,2013-10-01 23:17:00,
2013-10-01 18:20:00,76.1,60.7,29.87,WSW,239,6.0,6.0,59,0.00,,,0.00,12,Wunderground v.1.15,2013-10-01 23:20:00,
2013-10-01 18:26:00,75.8,60.9,29.87,SW,231,5.0,6.0,60,0.00,,,0.00,9,Wunderground v.1.15,2013-10-01 23:26:00,
2013-10-01 18:30:00,75.5,60.6,29.87,SW,231,5.0,5.0,60,0.00,,,0.00,5,Wunderground v.1.15,2013-10-01 23:30:00,
2013-10-01 18:35:00,74.9,60.5,29.87,SW,231,4.0,5.0,61,0.00,,,0.00,0,Wunderground v.1.15,2013-10-01 23:35:00,
2013-10-01 18:41:00,74.6,60.7,29.87,SW,225,4.0,4.0,62,0.00,,,0.00,0,Wunderground v.1.15,2013-10-01 23:41:00,
2013-10-01 18:47:00,74.4,60.5,29.87,SW,225,3.0,4.0,62,0.00,,,0.00,0,Wunderground v.1.15,2013-10-01 23:47:00,
2013-10-01 18:53:00,73.8,60.9,29.87,SW,223,3.0,4.0,64,0.00,,,0.00,0,Wunderground v.1.15,2013-10-01 23:53:00,
2013-10-01 18:59:00,73.2,60.7,29.87,SW,223,2.0,4.0,65,0.00,,,0.00,0,Wunderground v.1.15,2013-10-01 23:59:00,
2013-10-01 19:04:00,73.3,60.8,29.88,SW,223,3.0,4.0,65,0.00,,,0.00,0,Wunderground v.1.15,2013-10-02 00:04:00,
2013-10-01 19:10:00,73.1,60.6,29.88,SW,223,3.0,3.0,65,0.00,,,0.00,0,Wunderground v.1.15,2013-10-02 00:10:00,
2013-10-01 19:15:00,72.5,60.9,29.88,SW,226,3.0,4.0,67,0.00,,,0.00,0,Wunderground v.1.15,2013-10-02 00:15:00,
2013-10-01 19:21:00,72.2,61.5,29.88,WSW,237,2.0,3.0,69,0.00,,,0.00,0,Wunderground v.1.15,2013-10-02 00:21:00,
2013-10-01 19:26:00,72.2,61.0,29.88,West,269,3.0,5.0,68,0.00,,,0.00,0,Wunderground v.1.15,2013-10-02 00:26:00,
2013-10-01 19:32:00,72.6,61.0,29.89,West,259,3.0,3.0,67,0.00,,,0.00,0,Wunderground v.1.15,2013-10-02 00:32:00,
2013-10-01 19:33:00,72.7,61.1,29.89,West,259,3.0,3.0,67,0.00,,,0.00,0,Wunderground v.1.15,2013-10-02 00:33:00,
2013-10-01 19:39:00,72.4,61.2,29.89,West,259,3.0,4.0,68,0.00,,,0.00,0,Wunderground v.1.15,2013-10-02 00:39:00,
2013-10-01 19:45:00,72.9,60.9,29.89,West,265,4.0,5.0,66,0.00,,,0.00,0,Wunderground v.1.15,2013-10-02 00:45:00,
2013-10-01 19:50:00,72.6,61.0,29.89,West,277,4.0,4.0,67,0.00,,,0.00,0,Wunderground v.1.15,2013-10-02 00:50:00,
2013-10-01 19:55:00,72.2,61.0,29.89,West,277,3.0,4.0,68,0.00,,,0.00,0,Wunderground v.1.15,2013-10-02 00:55:00,
2013-10-01 20:01:00,72.0,60.9,29.90,West,276,2.0,3.0,68,0.00,,,0.00,0,Wunderground v.1.15,2013-10-02 01:01:00,
2013-10-01 20:06:00,72.0,61.3,29.90,West,278,3.0,3.0,69,0.00,,,0.00,0,Wunderground v.1.15,2013-10-02 01:06:00,
2013-10-01 20:12:00,71.6,60.9,29.90,West,267,3.0,3.0,69,0.00,,,0.00,0,Wunderground v.1.15,2013-10-02 01:12:00,
2013-10-01 20:17:00,71.2,60.9,29.90,West,267,2.0,3.0,70,0.00,,,0.00,0,Wunderground v.1.15,2013-10-02 01:17:00,
2013-10-01 20:22:00,70.4,60.9,29.90,West,267,1.0,2.0,72,0.00,,,0.00,0,Wunderground v.1.15,2013-10-02 01:22:00,
2013-10-01 20:28:00,70.2,60.7,29.90,West,267,1.0,2.0,72,0.00,,,0.00,0,Wunderground v.1.15,2013-10-02 01:28:00,
2013-10-01 20:34:00,69.9,60.8,29.91,West,267,1.0,1.0,73,0.00,,,0.00,0,Wunderground v.1.15,2013-10-02 01:34:00,
2013-10-01 20:40:00,69.0,61.1,29.91,West,267,0.0,1.0,76,0.00,,,0.00,0,Wunderground v.1.15,2013-10-02 01:40:00,
2013-10-01 20:46:00,67.9,60.8,29.91,West,267,0.0,0.0,78,0.00,,,0.00,0,Wunderground v.1.15,2013-10-02 01:46:00,
2013-10-01 20:51:00,67.3,60.6,29.91,West,267,0.0,0.0,79,0.00,,,0.00,0,Wunderground v.1.15,2013-10-02 01:51:00,
2013-10-01 20:56:00,66.9,60.9,29.91,West,267,1.0,1.0,81,0.00,,,0.00,0,Wunderground v.1.15,2013-10-02 01:56:00,
2013-10-01 21:02:00,66.6,60.9,29.91,West,267,0.0,0.0,82,0.00,,,0.00,0,Wunderground v.1.15,2013-10-02 02:02:00,
2013-10-01 21:08:00,66.3,61.3,29.91,West,267,0.0,0.0,84,0.00,,,0.00,0,Wunderground v.1.15,2013-10-02 02:08:00,
2013-10-01 21:14:00,66.0,61.0,29.91,West,267,0.0,0.0,84,0.00,,,0.00,0,Wunderground v.1.15,2013-10-02 02:14:00,
2013-10-01 21:19:00,65.5,60.9,29.91,West,267,0.0,0.0,85,0.00,,,0.00,0,Wunderground v.1.15,2013-10-02 02:19:00,
2013-10-01 21:24:00,65.3,61.0,29.91,West,267,0.0,0.0,86,0.00,,,0.00,0,Wunderground v.1.15,2013-10-02 02:24:00,
2013-10-01 21:30:00,65.8,60.5,29.91,West,267,0.0,0.0,83,0.00,,,0.00,0,Wunderground v.1.15,2013-10-02 02:30:00,
2013-10-01 21:36:00,66.5,60.1,29.91,West,267,0.0,0.0,80,0.00,,,0.00,0,Wunderground v.1.15,2013-10-02 02:36:00,
2013-10-01 21:42:00,66.8,60.1,29.91,West,267,0.0,0.0,79,0.00,,,0.00,0,Wunderground v.1.15,2013-10-02 02:42:00,
2013-10-01 21:47:00,66.6,60.2,29.92,West,267,0.0,0.0,80,0.00,,,0.00,0,Wunderground v.1.15,2013-10-02 02:47:00,
2013-10-01 21:53:00,65.4,59.4,29.92,West,267,0.0,0.0,81,0.00,,,0.00,0,Wunderground v.1.15,2013-10-02 02:53:00,
2013-10-01 21:59:00,64.7,59.8,29.92,West,267,0.0,0.0,84,0.00,,,0.00,0,Wunderground v.1.15,2013-10-02 02:59:00,
2013-10-01 22:05:00,64.2,59.6,29.92,West,267,0.0,0.0,85,0.00,,,0.00,0,Wunderground v.1.15,2013-10-02 03:05:00,
2013-10-01 22:11:00,63.6,59.3,29.92,West,267,0.0,0.0,86,0.00,,,0.00,0,Wunderground v.1.15,2013-10-02 03:11:00,
2013-10-01 22:17:00,63.2,59.3,29.93,West,267,0.0,0.0,87,0.00,,,0.00,0,Wunderground v.1.15,2013-10-02 03:17:00,
2013-10-01 22:22:00,62.9,59.3,29.93,West,267,0.0,0.0,88,0.00,,,0.00,0,Wunderground v.1.15,2013-10-02 03:22:00,
2013-10-01 22:28:00,62.6,59.0,29.93,West,267,0.0,0.0,88,0.00,,,0.00,0,Wunderground v.1.15,2013-10-02 03:28:00,
2013-10-01 22:34:00,62.3,58.7,29.93,West,267,0.0,0.0,88,0.00,,,0.00,0,Wunderground v.1.15,2013-10-02 03:34:00,
2013-10-01 22:39:00,61.7,58.4,29.93,West,267,0.0,0.0,89,0.00,,,0.00,0,Wunderground v.1.15,2013-10-02 03:39:00,
2013-10-01 22:44:00,61.6,58.3,29.93,West,267,0.0,0.0,89,0.00,,,0.00,0,Wunderground v.1.15,2013-10-02 03:44:00,
2013-10-01 22:50:00,61.3,58.3,29.93,West,267,0.0,0.0,90,0.00,,,0.00,0,Wunderground v.1.15,2013-10-02 03:50:00,
2013-10-01 22:55:00,61.1,58.1,29.93,West,267,0.0,0.0,90,0.00,,,0.00,0,Wunderground v.1.15,2013-10-02 03:55:00,
2013-10-01 23:01:00,61.0,58.0,29.93,West,267,0.0,0.0,90,0.00,,,0.00,0,Wunderground v.1.15,2013-10-02 04:01:00,
2013-10-01 23:02:00,61.0,58.0,29.93,West,267,0.0,0.0,90,0.00,,,0.00,0,Wunderground v.1.15,2013-10-02 04:02:00,
2013-10-01 23:03:00,61.0,58.0,29.93,West,267,0.0,0.0,90,0.00,,,0.00,0,Wunderground v.1.15,2013-10-02 04:03:00,
2013-10-01 23:08:00,60.9,58.3,29.93,West,267,0.0,0.0,91,0.00,,,0.00,0,Wunderground v.1.15,2013-10-02 04:08:00,
2013-10-01 23:11:00,60.9,58.3,29.93,West,267,0.0,0.0,91,0.00,,,0.00,0,Wunderground v.1.15,2013-10-02 04:11:00,
2013-10-01 23:17:00,60.9,58.3,29.94,West,267,0.0,0.0,91,0.00,,,0.00,0,Wunderground v.1.15,2013-10-02 04:17:00,
2013-10-01 23:23:00,60.8,58.2,29.94,West,267,0.0,0.0,91,0.00,,,0.00,0,Wunderground v.1.15,2013-10-02 04:23:00,
2013-10-01 23:28:00,61.0,58.7,29.94,West,267,0.0,0.0,92,0.00,,,0.00,0,Wunderground v.1.15,2013-10-02 04:28:00,
2013-10-01 23:33:00,61.1,58.8,29.95,West,267,0.0,0.0,92,0.00,,,0.00,0,Wunderground v.1.15,2013-10-02 04:33:00,
2013-10-01 23:39:00,61.1,58.8,29.95,West,267,0.0,1.0,92,0.00,,,0.00,0,Wunderground v.1.15,2013-10-02 04:39:00,
2013-10-01 23:45:00,61.1,58.8,29.95,West,267,0.0,0.0,92,0.00,,,0.00,0,Wunderground v.1.15,2013-10-02 04:45:00,
2013-10-01 23:50:00,60.6,58.3,29.95,West,267,0.0,0.0,92,0.00,,,0.00,0,Wunderground v.1.15,2013-10-02 04:50:00,
2013-10-01 23:55:00,60.3,58.0,29.95,West,267,0.0,0.0,92,0.00,,,0.00,0,Wunderground v.1.15,2013-10-02 04:55:00,